Beatrice, NE

9:08 AM CDT on October 18, 2017 (GMT -0500)
Beatrice Municipal

Weather History for KBIE - December, 2009

Change the Weather History Date:

Thursday, December 24, 2009

  Actual Average Record
Temperature  
Mean Temperature 23 °F -  
Max Temperature 32 °F 35 °F 67 °F (1964)
Min Temperature 13 °F 17 °F -18 °F (1983)
Degree Days  
Heating Degree Days 42    
Moisture  
Dew Point 18 °F    
Average Humidity 88    
Maximum Humidity 100    
Minimum Humidity 82    
Precipitation  
Precipitation 0.00 in - - ()
Sea Level Pressure  
Sea Level Pressure 29.89 in    
Wind  
Wind Speed 18 mph (NNW)    
Max Wind Speed 34 mph    
Max Gust Speed 39 mph    
Visibility 6 miles    
Events Snow    
Averages and records for this station are not official NWS values.
T = Trace of Precipitation, MM = Missing Value Source: NWS Daily Summary

Daily Weather History Graph

Daily Weather History Graph

Search for Another Location

Airport or City:

Trip Planner

Search our weather history database for the weather conditions in past years. The results will help you decide how hot, cold, wet, or windy it might be!

Date:

Astronomy

Dec. 24, 2009 Rise Set
Actual Time 7:47 AM CST 5:05 PM CST
Civil Twilight 7:17 AM CST 5:36 PM CST
Nautical Twilight 6:42 AM CST 6:10 PM CST
Astronomical Twilight 6:09 AM CST 6:44 PM CST
Moon 11:57 AM CST (12/24) 12:07 AM CST (12/24)
Length of Visible Light 10h 19m
Length of Day
9h 18m
Waxing Crescent, 50% of the Moon is Illuminated
Dec 24
Waxing Crescent
Dec 31
Full
Jan 7
Last Quarter
Jan 15
New
Jan 23
First Quarter

Hourly Weather History & Observations

Time (CST) Temp. Windchill Dew Point Humidity Pressure Visibility Wind Dir Wind Speed Gust Speed Precip Events Conditions
12:10 AM 32.0 °F 24.8 °F 31.6 °F 99% 29.83 in 10.0 mi NNW 8.1 mph - N/A   Overcast
12:30 AM 32.0 °F 23.6 °F 31.5 °F 98% 29.82 in 4.0 mi NNW 10.4 mph - N/A   Overcast
12:50 AM 32.0 °F 23.6 °F 31.1 °F 96% 29.83 in 4.0 mi NNW 10.4 mph - N/A   Overcast
1:10 AM 31.8 °F 23.9 °F 30.9 °F 96% 29.85 in 3.0 mi NW 9.2 mph - N/A   Overcast
1:30 AM 31.1 °F 22.4 °F 30.2 °F 96% 29.86 in 4.0 mi NNW 10.4 mph - N/A   Overcast
1:50 AM 30.2 °F 20.8 °F 30.2 °F 100% 29.86 in 5.0 mi NNW 11.5 mph - N/A   Overcast
2:10 AM 30.6 °F 21.2 °F 29.1 °F 94% 29.85 in 5.0 mi NW 11.5 mph - N/A   Overcast
2:30 AM 30.0 °F 20.5 °F 28.4 °F 94% 29.85 in 5.0 mi NNW 11.5 mph - N/A   Overcast
2:50 AM 29.5 °F 19.9 °F 28.0 °F 94% 29.86 in 5.0 mi NNW 11.5 mph - N/A   Overcast
3:10 AM 28.9 °F 19.8 °F 27.1 °F 93% 29.88 in 7.0 mi NNW 10.4 mph - N/A   Overcast
3:30 AM 28.8 °F 19.5 °F 26.6 °F 92% 29.88 in 7.0 mi NNW 10.4 mph - N/A   Overcast
3:50 AM 28.4 °F 18.5 °F 26.1 °F 91% 29.88 in 10.0 mi North 11.5 mph - N/A   Overcast
4:10 AM 28.2 °F 16.8 °F 25.7 °F 90% 29.88 in 10.0 mi North 15.0 mph - N/A   Overcast
4:30 AM 28.0 °F 17.0 °F 25.5 °F 90% 29.88 in 10.0 mi NNW 13.8 mph - N/A   Overcast
4:50 AM 27.9 °F 15.5 °F 25.3 °F 90% 29.88 in 10.0 mi NNW 17.3 mph - N/A   Overcast
5:10 AM 27.5 °F 16.8 °F 24.8 °F 90% 29.91 in 10.0 mi NNW 12.7 mph 19.6 mph N/A   Overcast
5:30 AM 26.2 °F 11.5 °F 23.0 °F 88% 29.91 in 10.0 mi NW 23.0 mph - N/A   Overcast
5:50 AM 24.3 °F 10.0 °F 21.2 °F 88% 29.91 in 10.0 mi NNW 19.6 mph - N/A   Overcast
6:10 AM 23.4 °F 8.1 °F 20.3 °F 88% 29.90 in 10.0 mi NNW 21.9 mph 26.5 mph N/A   Overcast
6:30 AM 23.0 °F 8.0 °F 19.8 °F 87% 29.91 in 10.0 mi NNW 20.7 mph 24.2 mph N/A   Overcast
6:50 AM 22.6 °F 7.5 °F 19.2 °F 87% 29.93 in 10.0 mi NNW 20.7 mph - N/A   Overcast
7:10 AM 23.0 °F 8.3 °F 19.4 °F 86% 29.94 in 10.0 mi NNW 19.6 mph - N/A   Overcast
7:30 AM 21.4 °F 5.8 °F 17.6 °F 85% 29.95 in 10.0 mi NNW 20.7 mph 27.6 mph N/A   Overcast
7:50 AM 20.8 °F 2.5 °F 17.2 °F 86% 29.94 in 10.0 mi NNW 29.9 mph 33.4 mph N/A   Overcast
8:10 AM 19.9 °F 1.3 °F 16.0 °F 85% 29.94 in 10.0 mi NNW 29.9 mph 34.5 mph N/A   Overcast
8:30 AM 19.4 °F 1.1 °F 15.6 °F 85% 29.93 in 10.0 mi NNW 27.6 mph 36.8 mph N/A   Overcast
8:50 AM 19.4 °F 2.1 °F 15.8 °F 86% 29.94 in 10.0 mi NNW 24.2 mph 28.8 mph N/A   Overcast
9:10 AM 19.2 °F 2.6 °F 15.4 °F 85% 29.94 in 10.0 mi NNW 21.9 mph 33.4 mph N/A   Overcast
9:30 AM 19.0 °F 2.0 °F 15.1 °F 85% 29.95 in 10.0 mi NNW 23.0 mph 31.1 mph N/A   Overcast
9:50 AM 18.9 °F 1.0 °F 14.7 °F 84% 29.96 in 10.0 mi NNW 25.3 mph 31.1 mph N/A   Overcast
10:10 AM 18.5 °F -0.4 °F 14.9 °F 86% 29.95 in 10.0 mi NNW 28.8 mph 33.4 mph N/A   Overcast
10:30 AM 18.5 °F 0.6 °F 14.5 °F 85% 29.93 in 10.0 mi NNW 25.3 mph 36.8 mph N/A   Overcast
10:50 AM 18.1 °F -0.3 °F 13.8 °F 83% 29.96 in 10.0 mi NNW 26.5 mph 36.8 mph N/A   Overcast
11:10 AM 17.6 °F -1.6 °F 13.5 °F 84% 29.95 in 10.0 mi NNW 28.8 mph 33.4 mph N/A   Overcast
11:30 AM 17.1 °F -3.0 °F 12.7 °F 83% 29.94 in 10.0 mi NNW 31.1 mph 35.7 mph N/A   Overcast
11:50 AM 16.9 °F -3.5 °F 12.6 °F 83% 29.92 in 10.0 mi NNW 32.2 mph 38.0 mph N/A   Overcast
12:10 PM 16.7 °F -3.1 °F 12.2 °F 82% 29.92 in 10.0 mi NNW 29.9 mph 38.0 mph N/A   Overcast
12:30 PM 16.3 °F -2.3 °F 12.0 °F 83% 29.91 in 7.0 mi NNW 25.3 mph 34.5 mph N/A   Overcast
12:50 PM 16.5 °F -3.4 °F 12.4 °F 84% 29.90 in 3.0 mi NNW 29.9 mph 34.5 mph N/A Snow Light Snow
1:10 PM 16.3 °F -3.9 °F 12.2 °F 84% 29.90 in 1.8 mi NNW 31.1 mph 35.7 mph N/A Snow Light Snow
1:30 PM 16.0 °F -3.5 °F 12.2 °F 85% 29.88 in 1.2 mi NNW 27.6 mph 34.5 mph N/A Snow Light Snow
1:50 PM 15.8 °F -3.4 °F 12.6 °F 87% 29.88 in 1.0 mi NNW 26.5 mph 33.4 mph N/A Snow Light Snow
2:10 PM 15.6 °F -3.6 °F 12.4 °F 87% 29.87 in 0.8 mi NNW 26.5 mph 36.8 mph N/A Snow Light Snow
2:30 PM 14.9 °F -5.9 °F 11.7 °F 87% 29.86 in 0.8 mi NNW 31.1 mph 39.1 mph N/A Snow Light Snow
2:50 PM 15.3 °F -3.8 °F 12.0 °F 87% 29.88 in 1.0 mi NNW 25.3 mph 29.9 mph N/A Snow Light Snow
3:10 PM 14.7 °F -5.2 °F 11.7 °F 88% 29.88 in 0.8 mi NNW 27.6 mph 36.8 mph N/A Snow Light Snow
3:30 PM 14.7 °F -4.5 °F 11.7 °F 88% 29.87 in 0.8 mi NNW 25.3 mph 33.4 mph N/A Snow Light Snow
3:50 PM 14.4 °F -5.7 °F 11.3 °F 88% 29.86 in 0.5 mi NNW 27.6 mph 35.7 mph N/A Snow Light Snow
4:10 PM 14.4 °F -5.7 °F 11.7 °F 89% 29.85 in 0.5 mi NNW 27.6 mph 35.7 mph N/A Snow Light Snow
4:30 PM 14.2 °F -6.2 °F 11.5 °F 89% 29.84 in 0.5 mi NNW 28.8 mph 39.1 mph N/A Snow Light Snow
4:50 PM 14.0 °F -6.2 °F 11.5 °F 90% 29.83 in 0.5 mi NNW 27.6 mph 36.8 mph N/A Snow Light Snow
5:10 PM 14.0 °F -7.4 °F 11.3 °F 89% 29.83 in 0.8 mi NNW 32.2 mph 38.0 mph N/A Snow Light Snow
5:30 PM 14.0 °F -7.1 °F 11.3 °F 89% 29.83 in 1.2 mi NNW 31.1 mph 36.8 mph N/A Snow Light Snow
5:50 PM 14.0 °F -8.0 °F 11.1 °F 88% 29.82 in 1.5 mi NNW 34.5 mph 38.0 mph N/A Snow Light Snow
6:10 PM 14.0 °F -7.1 °F 10.9 °F 88% 29.81 in 1.0 mi NNW 31.1 mph 39.1 mph N/A Snow Light Snow
6:30 PM 13.8 °F -7.4 °F 10.9 °F 88% 29.81 in 1.5 mi NNW 31.1 mph 34.5 mph N/A Snow Light Snow
6:50 PM 14.0 °F -7.1 °F 10.8 °F 87% 29.81 in 1.2 mi NNW 31.1 mph 35.7 mph N/A Snow Light Snow
7:10 PM 13.8 °F -8.0 °F 10.9 °F 88% 29.80 in 1.5 mi NNW 33.4 mph 39.1 mph N/A Snow Light Snow
7:30 PM 13.6 °F -6.3 °F 10.8 °F 88% 29.80 in 1.0 mi NNW 26.5 mph 35.7 mph N/A Snow Light Snow
7:50 PM 13.5 °F -6.2 °F 10.8 °F 89% 29.78 in 0.8 mi NNW 25.3 mph 34.5 mph N/A Snow Light Snow
8:10 PM 13.1 °F -7.4 °F 10.4 °F 89% 29.77 in 0.8 mi NNW 27.6 mph 39.1 mph N/A Snow Snow
8:30 PM 13.1 °F -8.4 °F 10.4 °F 89% 29.76 in 1.0 mi NNW 31.1 mph 35.7 mph N/A Snow Light Snow
8:50 PM 12.9 °F -7.3 °F 10.4 °F 90% 29.75 in 0.8 mi NNW 26.5 mph 34.5 mph N/A Snow Light Snow
9:10 PM 12.7 °F -9.1 °F 10.0 °F 89% 29.74 in 0.8 mi NNW 32.2 mph 38.0 mph N/A Snow Light Snow
9:30 PM 12.7 °F -8.5 °F 9.9 °F 88% 29.73 in 1.0 mi NNW 29.9 mph 34.5 mph N/A Snow Light Snow
9:50 PM 12.2 °F -10.2 °F 9.5 °F 89% 29.71 in 0.8 mi NNW 33.4 mph 40.3 mph N/A Snow Light Snow
10:10 PM 12.2 °F -10.2 °F 9.5 °F 89% 29.69 in 0.8 mi NNW 33.4 mph 44.9 mph N/A Snow Snow
10:30 PM 12.2 °F -10.2 °F 9.5 °F 89% 29.68 in 0.8 mi NW 33.4 mph 41.4 mph N/A Snow Snow
10:50 PM 12.0 °F -11.0 °F 9.5 °F 90% 29.67 in 0.5 mi NW 35.7 mph 41.4 mph N/A Snow Snow
11:10 PM 11.8 °F -11.3 °F 9.3 °F 90% 29.66 in 0.5 mi NW 35.7 mph 41.4 mph N/A Snow Snow
11:30 PM 11.7 °F -11.5 °F 9.1 °F 90% 29.64 in 0.2 mi NW 35.7 mph 44.9 mph N/A Snow Heavy Snow
11:50 PM 11.5 °F -12.8 °F 8.8 °F 89% 29.64 in 0.5 mi NW 40.3 mph 46.0 mph N/A Snow Heavy Snow